Regional Weather Roundup
Issued by NWS Bismarck, ND

Home | Current Version | Previous Version | Text Only | Print | Product List | Glossary On
Versions: 1 2 3 4 5 6 7 8 9 10 11 12 13 14 15 16 17 18 19 20 21 22 23 24 25 26 27 28 29 30 31 32 33 34 35 36 37 38 39 40 41 42 43 44 45 46 47 48 49 50
000
ASUS43 KBIS 261110
RWRBIS

NWR BROADCAST TEXT
NATIONAL WEATHER SERVICE BISMARCK ND
600 AM CDT SAT JUL 26 2014

NOTE: "FAIR" INDICATES FEW OR NO CLOUDS BELOW 12,000 FEET WITH NO
SIGNIFICANT WEATHER AND/OR OBSTRUCTIONS TO VISIBILITY.


CITY           SKY/WX    TMP DP  RH WIND       PRES   REMARKS
WILLISTON      CLEAR     57  49  74 W16G25    29.86R
MINOT          CLEAR     60  49  66 SW16      29.78S
MINOT AFB      CLEAR     57  53  86 W16       29.76S
BISMARCK       CLEAR     60  51  72 SW3       29.85R
DICKINSON      CLEAR     54  46  74 W12       29.90S
GARRISON         N/A     53  51  93 SW6       29.83R
HETTINGER ARPT CLEAR     56  44  64 NW14      29.94R
JAMESTOWN      CLEAR     59  55  87 SW6       29.80R
CARRINGTON     FAIR      59  59 100 W10       29.80R
CROSBY           N/A     55  55 100 SW15G24   29.79S
HARVEY         FAIR      54  54 100 SW7       29.79R
HAZEN          FAIR      55  50  82 W8        29.87R
LINTON         FAIR      57  57 100 W6        29.86R
MANDAN         FAIR      57  50  77 NW9       29.87R
RUGBY          FAIR      54  54 100 W7        29.76S
STANLEY        FAIR      54  54 100 W8        29.83S
TIOGA          FAIR      54  54 100 W15       29.85S
WATFORD CITY   FAIR      55  50  82 W9        29.87R
$$

CITY           SKY/WX    TMP DP  RH WIND       PRES   REMARKS
GRAND FORKS    CLEAR     58  54  86 S7        29.73F
GRAND FORKS AF CLEAR     58  56  93 SW7       29.74S
DEVILS LAKE    CLEAR     66  55  68 SW16G23   29.74S
FARGO          CLEAR     58  54  86 E3        29.78F
CANDO          FAIR      55  54  94 W8        29.75S
CAVALIER       FAIR      59  54  82 SW6       29.70F
GRAFTON        FAIR      54  54 100 S5        29.72S
GWINNER        SUNNY     57  57 100 SW8       29.82R
LANGDON        FAIR      55  54  94 SW9       29.73S
ROLLA          FAIR      55  55 100 SW10      29.75S
WALHALLA         N/A     66  50  55 SW14G22     N/A
$$

CITY           SKY/WX    TMP DP  RH WIND       PRES   REMARKS
ABERDEEN       MOCLDY    57  57 100 CALM      29.80S FOG
MOBRIDGE       MOCLDY    66  65  96 NW10      29.84R
BUFFALO          N/A     57  44  62 NW9       29.92R
RAPID CITY     CLEAR     62  52  69 N8        29.93R
GLASGOW        MOCLDY    56  49  77 W14       29.95R
SIDNEY         CLEAR     57  46  67 W10       29.92S
WOLF POINT     CLEAR     56  48  74 W13       29.92S
GLENDIVE       CLEAR     57  46  67 W13       29.96S
MILES CITY     CLEAR     53  44  71 W7        30.02R
BAKER          CLEAR     51  44  77 W8        30.00R
$$

CITY           SKY/WX    TMP DP  RH WIND       PRES   REMARKS
BILLINGS       CLEAR     56  34  43 NW3       30.10R
GREAT FALLS    CLEAR     49  39  68 SE3       30.10R
REGINA         LGT RAIN  55  54  94 W26G33    29.69R FOG
ESTEVAN        CLOUDY    59  52  77 W14G21    29.76R
$$



USA.gov is the U.S. government's official web portal to all federal, state and local government web resources and services.